Location: Bailen
(14.1842°N, 120.7958°E)
Time: 17:44:48
(UTC+00:00)

SL-12 R/B(2) - Pass Details

Date: 12 January 2026
Orbit: 1171 x 2178 km, 63.4° (Epoch: 17 February)

Event Time Altitude Azimuth Distance (km) Brightness Sun altitude
Rises 21:30:45 0° 216° (SW) 4,038 6.6 -13.0°
Reaches altitude 10° 21:33:27 10° 220° (SW) 3,083 5.9 -12.4°
Maximum altitude 21:40:27 54° 297° (WNW) 1,464 4.1 -10.8°
Drops below altitude 10° 21:48:19 10° 13° (NNE) 3,442 6.3 -9.0°
Sets 21:51:31 0° 18° (NNE) 4,547 7.0 -8.3°
